Le nostre stazioni meteo in Italia

Pubblicità
Il mio iltempo24.it
Marina Di Ginosa, Italia (16325): Temperatura & dewpoint: 04.04.2020 05:00:00 - 10.04.2020 05:00:00 (CEST)Marina Di Ginosa, Italia (16325): velocità del vento: 04.04.2020 05:00:00 - 10.04.2020 05:00:00 (CEST)Marina Di Ginosa, Italia (16325): direzione del vento: 04.04.2020 05:00:00 - 10.04.2020 05:00:00 (CEST)Marina Di Ginosa, Italia (16325): reduced air pressure: 04.04.2020 05:00:00 - 10.04.2020 05:00:00 (CEST)Marina Di Ginosa, Italia (16325): visibility: 04.04.2020 05:00:00 - 10.04.2020 05:00:00 (CEST)
Data & Tempo tt [°C] td [°C] ff [km/h] ff [kn] dd ppp [hPa] vv [km]
10.04.2020 05:00:00 - - - - - - -
10.04.2020 04:00:00 8,0 4,0 15 8 ONO - 10
10.04.2020 03:00:00 8,0 4,0 15 8 ONO - 10
10.04.2020 02:00:00 9,0 4,8 13 7 NO 1020,4 25
10.04.2020 01:00:00 10,0 4,0 13 7 ONO - 10
10.04.2020 00:00:00 11,0 3,0 13 7 O - 10
09.04.2020 23:00:00 12,4 2,0 13 7 ONO 1020,4 25
09.04.2020 22:00:00 14,0 0,0 13 7 NO - 10
09.04.2020 21:00:00 16,0 0,0 11 6 NNO - 10
09.04.2020 20:00:00 18,0 0,6 13 7 N 1018,7 25
09.04.2020 19:00:00 20,0 1,0 13 7 - - 10
09.04.2020 18:00:00 22,0 3,0 13 7 NE - 10
09.04.2020 17:00:00 21,8 7,6 9 5 SSE 1018,7 25
09.04.2020 16:00:00 22,0 7,0 9 5 SSE - 10
09.04.2020 15:00:00 22,0 7,0 11 6 S - 10
09.04.2020 14:00:00 22,4 6,2 9 5 S 1020,3 25
09.04.2020 13:00:00 22,0 6,0 13 7 S - 10
09.04.2020 12:00:00 22,0 4,0 9 5 ONO - 10
09.04.2020 11:00:00 20,2 5,1 13 7 ONO 1021,4 25
09.04.2020 10:00:00 18,0 6,0 15 8 - - 10
09.04.2020 09:00:00 13,0 7,0 13 7 ONO - 10
09.04.2020 08:00:00 9,4 6,0 13 7 ONO 1021,3 20
09.04.2020 07:00:00 7,0 6,0 15 8 ONO - 10
09.04.2020 06:00:00 7,0 7,0 15 8 ONO - 10
09.04.2020 05:00:00 8,8 6,9 15 8 NO 1021,4 20
09.04.2020 04:00:00 8,0 5,0 16 9 NNO - 10
09.04.2020 03:00:00 8,0 5,0 16 9 NO - 10
09.04.2020 02:00:00 8,0 4,8 15 8 NO 1022,4 20
09.04.2020 01:00:00 8,0 5,0 15 8 ONO - 10
09.04.2020 00:00:00 8,0 4,0 13 7 ONO - 10
08.04.2020 23:00:00 7,8 3,1 4 2 N 1022,4 20
08.04.2020 22:00:00 10,0 2,0 11 6 NNO - 10
08.04.2020 21:00:00 13,0 0,0 9 5 N - 10
08.04.2020 20:00:00 15,4 -0,8 11 6 N 1021,8 20
08.04.2020 19:00:00 18,0 0,0 15 8 NNE - 10
08.04.2020 18:00:00 20,0 1,0 15 8 - - 10
08.04.2020 17:00:00 20,8 5,6 8 4 E 1021,9 20
08.04.2020 16:00:00 21,0 11,0 9 5 SSE - 10
08.04.2020 15:00:00 21,0 13,0 11 6 SSE - 10
08.04.2020 14:00:00 20,8 12,8 9 5 S 1022,7 20
08.04.2020 13:00:00 22,0 8,0 13 7 - - 10
08.04.2020 12:00:00 21,0 8,0 13 7 - - 10
08.04.2020 11:00:00 19,6 8,9 4 2 N 1024,3 20
08.04.2020 10:00:00 18,0 9,0 16 9 N - 10
08.04.2020 09:00:00 15,0 10,0 9 5 NO - 10
08.04.2020 08:00:00 10,0 7,6 16 9 ONO 1024,4 30
08.04.2020 07:00:00 8,0 7,0 11 6 ONO - 10
08.04.2020 06:00:00 9,0 7,0 16 9 ONO - 10
08.04.2020 05:00:00 9,0 7,1 15 8 NO 1024,4 10
08.04.2020 04:00:00 9,0 8,0 15 8 NO - 10
08.04.2020 03:00:00 8,0 4,0 21 11 ONO - 10
08.04.2020 02:00:00 8,8 4,2 18 10 NO 1025,4 10
08.04.2020 01:00:00 9,0 4,0 21 11 ONO - 10
08.04.2020 00:00:00 10,0 4,0 15 8 ONO - 10
07.04.2020 23:00:00 10,8 4,5 15 8 NO 1025,4 10
07.04.2020 22:00:00 12,0 5,0 13 7 NO - 10
07.04.2020 21:00:00 14,0 7,0 11 6 N - 10
07.04.2020 20:00:00 16,2 5,2 4 2 N 1025,0 10
07.04.2020 19:00:00 18,0 4,0 15 8 NNE - 10
07.04.2020 18:00:00 19,0 7,0 15 8 NE - 10
07.04.2020 17:00:00 19,4 8,7 21 11 E 1024,4 30
07.04.2020 16:00:00 20,0 6,0 18 10 E - 10
07.04.2020 15:00:00 21,0 3,0 21 11 - - 10
07.04.2020 14:00:00 21,0 2,8 21 11 ENE 1024,6 30
07.04.2020 13:00:00 21,0 3,0 21 11 - - 10
07.04.2020 12:00:00 21,0 6,0 18 10 NNE - 10
07.04.2020 11:00:00 19,0 8,4 22 12 N 1025,2 30
07.04.2020 10:00:00 17,0 9,0 24 13 N - 10
07.04.2020 09:00:00 15,0 10,0 22 12 - - 10
07.04.2020 08:00:00 10,2 6,9 13 7 NO 1024,5 20
07.04.2020 07:00:00 8,0 6,0 15 8 NO - 10
07.04.2020 06:00:00 8,0 5,0 15 8 ONO - 10
07.04.2020 05:00:00 8,8 5,7 13 7 ONO 1024,4 20
07.04.2020 04:00:00 9,0 6,0 13 7 NO - 10
07.04.2020 03:00:00 10,0 6,0 16 9 NO - 10
07.04.2020 02:00:00 10,2 6,0 11 6 NO 1024,4 20
07.04.2020 01:00:00 11,0 6,0 13 7 NO - 10
07.04.2020 00:00:00 10,0 6,0 15 8 NO - 10
06.04.2020 23:00:00 11,2 6,7 15 8 NO 1024,0 20
06.04.2020 22:00:00 13,0 6,0 15 8 NNO - 10
06.04.2020 21:00:00 13,0 6,0 11 6 N - 10
06.04.2020 20:00:00 15,0 6,0 8 4 NNE 1022,5 20
06.04.2020 19:00:00 17,0 7,0 15 8 NE - 10
06.04.2020 18:00:00 19,0 10,0 16 9 ENE - 10
06.04.2020 17:00:00 19,8 10,5 13 7 E 1022,4 20
06.04.2020 16:00:00 20,0 9,0 9 5 SE - 10
06.04.2020 15:00:00 20,0 8,0 5 3 SSE - 10
06.04.2020 14:00:00 19,0 7,4 5 3 SSE 1022,5 20
06.04.2020 13:00:00 18,0 12,0 8 4 SE - 10
06.04.2020 12:00:00 19,0 13,0 9 5 ESE - 10
06.04.2020 11:00:00 18,0 11,5 11 6 E 1021,4 20
06.04.2020 10:00:00 17,0 10,0 16 9 - - 10
06.04.2020 09:00:00 15,0 11,0 5 3 - - 10
06.04.2020 08:00:00 13,6 10,4 11 6 NNO 1019,6 20
06.04.2020 07:00:00 12,0 10,0 15 8 NNO - 10
06.04.2020 06:00:00 12,0 10,0 15 8 NNO - 10
06.04.2020 05:00:00 12,0 9,6 15 8 NO 1018,2 20
06.04.2020 04:00:00 13,0 9,0 13 7 NNO - 10
06.04.2020 03:00:00 13,0 9,0 16 9 NNO - 10
06.04.2020 02:00:00 13,6 8,2 15 8 NNO 1018,2 20
06.04.2020 01:00:00 15,0 8,0 15 8 NNO - 10
06.04.2020 00:00:00 16,0 9,0 18 10 N - 10
05.04.2020 23:00:00 15,8 9,0 21 11 NNE 1017,6 20
05.04.2020 22:00:00 16,0 8,0 15 8 - - 10
05.04.2020 21:00:00 16,0 8,0 16 9 N - 10
05.04.2020 20:00:00 16,0 7,7 18 10 N 1016,2 20
05.04.2020 19:00:00 16,0 8,0 16 9 NNE - 10
05.04.2020 18:00:00 18,0 7,0 21 11 - - 10
05.04.2020 17:00:00 18,2 6,7 22 12 NNE 1014,6 25
05.04.2020 16:00:00 18,0 7,0 22 12 NNE - 10
05.04.2020 15:00:00 19,0 7,0 21 11 NNE - 10
05.04.2020 14:00:00 17,8 7,8 16 9 NE 1014,4 20
05.04.2020 13:00:00 18,0 8,0 21 11 NE - 10
05.04.2020 12:00:00 18,0 8,0 15 8 NNE - 10
05.04.2020 11:00:00 17,0 11,1 8 4 N 1014,0 12
05.04.2020 10:00:00 16,0 10,0 16 9 ONO - 10
05.04.2020 09:00:00 14,0 9,0 15 8 ONO - 10
05.04.2020 08:00:00 11,8 8,7 15 8 ONO 1013,1 20
05.04.2020 07:00:00 11,0 8,0 16 9 NO - 10
05.04.2020 06:00:00 11,0 9,0 16 9 ONO - 10
05.04.2020 05:00:00 12,0 9,4 16 9 ONO 1012,2 20
05.04.2020 04:00:00 12,0 9,0 18 10 ONO - 10
05.04.2020 03:00:00 12,0 9,0 18 10 NO - 10
05.04.2020 02:00:00 12,0 8,5 16 9 NO 1013,2 20
05.04.2020 01:00:00 13,0 8,0 18 10 NO - 10
05.04.2020 00:00:00 14,0 7,0 18 10 NNO - 10
04.04.2020 23:00:00 14,0 6,8 24 13 NO 1012,8 25
04.04.2020 22:00:00 14,0 7,0 21 11 NO - 10
04.04.2020 21:00:00 15,0 2,0 16 9 - - 10
04.04.2020 20:00:00 16,0 1,0 21 11 NNO 1012,0 25
04.04.2020 19:00:00 17,0 1,0 26 14 NNO - 10
04.04.2020 18:00:00 18,0 2,0 26 14 N - 10
04.04.2020 17:00:00 18,8 3,0 26 14 N 1011,0 25
04.04.2020 16:00:00 20,0 4,0 31 17 N - 10
04.04.2020 15:00:00 20,0 5,0 29 16 N - 10
04.04.2020 14:00:00 19,8 5,8 4 2 N 1011,2 20
04.04.2020 13:00:00 19,0 6,0 31 17 NNO - 10
04.04.2020 12:00:00 18,0 8,0 26 14 - - 10
04.04.2020 11:00:00 16,6 8,6 28 15 NO 1012,1 20
04.04.2020 10:00:00 14,0 8,0 24 13 NO - 10
04.04.2020 09:00:00 11,0 8,0 21 11 NO - 10
04.04.2020 08:00:00 10,0 6,7 21 11 NO 1012,0 20
04.04.2020 07:00:00 9,0 5,0 21 11 NO - 10
04.04.2020 06:00:00 10,0 8,0 18 10 ONO - 10
04.04.2020 05:00:00 11,0 5,3 21 11 NO 1011,9 20

tt = Temperatura
td = dewpoint
ff = velocità del vento
dd = direzione del vento
ppp = reduced air pressure
vv = visibility

Stazioni seguenti

WeatherPro
AMSI
MeteoEarth